User: anonymous   Login
Location: Aressy
(43.2833°N, 0.3167°W)
Time: 22:42:56
(UTC+00:00)
Language:

Cosmos 372 Rocket - Orbit

View from above orbital plane
View from above orbital plane
View from above satellite
View from above satellite

Ground track
Ground track

The orbit data is extracted from the following two-line orbital elements,

1  4589U 70086B   21103.15574950  .00000067  00000-0  28701-4 0  9995
2  4589  74.0590 255.9401 0019893 120.5460 239.7663 14.41633827648448
Epoch (UTC): 13 April 2021 03:44:16
Eccentricity: 0.0019893
inclination: 74.0590°
perigee height: 739 km
apogee height: 767 km
right ascension of ascending node: 255.9401°
argument of perigee: 120.5460°
revolutions per day: 14.41633827
mean anomaly at epoch: 239.7663°
orbit number at epoch: 64844

The dashed part of the orbit path shows where the satellite is in the earth's shadow,  

DLR